Weather History for Kaneohe MCBH, HI

Change the Weather History Date:

Wednesday, July 10, 2013

  Actual Average Record
Temperature  
Mean Temperature 79 °F -  
Max Temperature 85 °F 79 °F 85 °F (2013)
Min Temperature 73 °F 72 °F 71 °F (2012)
Cooling Degree Days 14    
Growing Degree Days 29 (Base 50)    
Moisture  
Dew Point 70 °F    
Average Humidity 76    
Maximum Humidity 90    
Minimum Humidity 58    
Precipitation  
Precipitation 0.00 in - - ()
Sea Level Pressure  
Sea Level Pressure 30.15 in    
Wind  
Wind Speed 12 mph (ENE)    
Max Wind Speed 17 mph    
Max Gust Speed 29 mph    
Visibility 9 miles    
Events Rain    
Averages and records for this station are not official NWS values.
T = Trace of Precipitation, MM = Missing Value Source: NWS Daily Summary

Daily Weather History Graph

Daily Weather History Graph

Search for Another Location

Airport:

Trip Planner

Search our weather history database for the weather conditions in past years. The results will help you decide how hot, cold, wet, or windy it might be!

Date:

Astronomy

Jul. 10, 2013 Rise Set
Actual Time 5:55 AM HST 7:17 PM HST
Civil Twilight 5:31 AM HST 7:41 PM HST
Nautical Twilight 5:01 AM HST 8:10 PM HST
Astronomical Twilight 4:31 AM HST 8:41 PM HST
Moon 8:04 AM HST (7/10) 8:59 PM HST (7/10)
Length of Visible Light 14h 10m
Length of Day
13h 21m
Waxing Crescent, 6% of the Moon is Illuminated
Jul 10
Waxing Crescent
Jul 15
First Quarter
Jul 22
Full
Jul 29
Last Quarter
Aug 6
New

Hourly Weather History & Observations

Time (HST) Temp. Heat Index Dew Point Humidity Pressure Visibility Wind Dir Wind Speed Gust Speed Precip Events Conditions
12:57 AM - - - N/A% 30.15 in 10.0 mi ENE 13.8 mph 24.2 mph N/A   Scattered Clouds
1:57 AM - - - N/A% 30.14 in 10.0 mi Variable 6.9 mph 16.1 mph 0.00 in Rain Light Rain
2:57 AM - - - N/A% 30.14 in 10.0 mi ENE 8.1 mph 16.1 mph 0.00 in   Overcast
3:57 AM 73.4 °F - 70.0 °F 89% 30.13 in 10.0 mi ESE 11.5 mph 18.4 mph N/A   Overcast
4:24 AM - - - N/A% 30.15 in 6.2 mi ESE 12.7 mph 18.4 mph 0.00 in Rain Light Rain
4:34 AM 73.4 °F - 69.8 °F 88% 30.15 in 6.2 mi East 12.7 mph 19.6 mph 0.00 in   Mostly Cloudy
4:57 AM 73.4 °F - 69.1 °F 86% 30.13 in 10.0 mi East 9.2 mph 18.4 mph 0.00 in   Scattered Clouds
5:57 AM 75.2 °F - 70.0 °F 84% 30.14 in 10.0 mi ENE 15.0 mph 21.9 mph N/A   Scattered Clouds
6:21 AM 75.2 °F - 71.6 °F 89% 30.16 in 6.2 mi Variable 6.9 mph 20.7 mph 0.00 in Rain Heavy Rain
6:40 AM 75.2 °F - 71.6 °F 89% 30.17 in 6.2 mi East 12.7 mph 18.4 mph N/A   Overcast
6:57 AM 75.2 °F - 71.1 °F 87% 30.15 in 10.0 mi East 12.7 mph 24.2 mph N/A   Overcast
7:28 AM 75.2 °F - 71.6 °F 89% 30.17 in 6.2 mi ENE 9.2 mph 23.0 mph N/A   Overcast
7:50 AM 75.2 °F - 71.6 °F 89% 30.18 in 6.2 mi ENE 11.5 mph 20.7 mph N/A   Overcast
7:57 AM 75.2 °F - 71.1 °F 87% 30.17 in 10.0 mi ENE 11.5 mph 18.4 mph N/A   Overcast
8:07 AM 75.2 °F - 71.6 °F 89% 30.18 in 6.2 mi ENE 12.7 mph 19.6 mph N/A   Mostly Cloudy
8:30 AM 75.2 °F - 71.6 °F 89% 30.18 in 6.2 mi East 8.1 mph 18.4 mph N/A   Mostly Cloudy
8:57 AM 75.2 °F - 72.0 °F 90% 30.17 in 10.0 mi East 17.3 mph 28.8 mph N/A   Mostly Cloudy
9:57 AM 81.0 °F 83.8 °F 68.0 °F 65% 30.17 in 10.0 mi East 12.7 mph 23.0 mph N/A   Scattered Clouds
10:57 AM 82.2 °F 84.7 °F 66.9 °F 60% 30.17 in 10.0 mi ENE 16.1 mph 25.3 mph N/A   Scattered Clouds
11:57 AM 84.0 °F 87.8 °F 69.1 °F 61% 30.16 in 10.0 mi NE 12.7 mph 19.6 mph N/A   Overcast
12:57 PM 84.4 °F 88.2 °F 69.1 °F 60% 30.16 in 10.0 mi ENE 13.8 mph 21.9 mph N/A   Scattered Clouds
1:57 PM 85.3 °F 89.1 °F 69.1 °F 58% 30.14 in 10.0 mi ENE 15.0 mph 23.0 mph N/A   Scattered Clouds
2:57 PM 84.0 °F 87.8 °F 69.1 °F 61% 30.13 in 10.0 mi ENE 12.7 mph 23.0 mph N/A   Mostly Cloudy
3:57 PM 83.7 °F 87.2 °F 69.1 °F 61% 30.11 in 10.0 mi ENE 12.7 mph 25.3 mph N/A   Scattered Clouds
4:57 PM 82.9 °F 87.0 °F 70.0 °F 65% 30.11 in 10.0 mi ENE 11.5 mph 21.9 mph N/A   Scattered Clouds
5:57 PM 81.1 °F 83.5 °F 66.9 °F 62% 30.11 in 10.0 mi ENE 13.8 mph 19.6 mph N/A   Scattered Clouds
6:57 PM 79.5 °F - 68.0 °F 68% 30.13 in 10.0 mi ENE 13.8 mph 21.9 mph N/A   Scattered Clouds
7:57 PM 78.3 °F - 68.0 °F 71% 30.14 in 10.0 mi ENE 13.8 mph 21.9 mph N/A   Scattered Clouds
8:57 PM 77.7 °F - 68.0 °F 72% 30.14 in 10.0 mi ENE 11.5 mph 21.9 mph N/A   Overcast
9:57 PM 77.5 °F - 69.1 °F 75% 30.15 in 10.0 mi ENE 10.4 mph 19.6 mph N/A   Overcast
10:57 PM 77.5 °F - 68.0 °F 72% 30.15 in 10.0 mi ENE 12.7 mph 20.7 mph N/A   Overcast
11:57 PM 77.4 °F - 68.0 °F 73% 30.14 in 10.0 mi ENE 10.4 mph 18.4 mph N/A   Mostly Cloudy